FOX-1A (AO-85) (40967 NORAD) Tracking and Keplerian Element Data

This shows tracking and keplerian element data for the satellite.

Feedback or suggestion? Click here.




ElementValue
Catalog40967
NameFOX-1A (AO-85)
Epoch Orbit8687
Epoch Day354.05886084
Epoch Year2025
RAAN115.1471
Inclination64.7756
Eccentricity0.0134104
Argument of Perigee127.1822
Mean Anonmoly234.1623
Mean Motion14.89717714
Decay Rate2.865E-05
L11 40967U 15058D 25354.05886084 .00002865 00000+0 26731-3 0 9995
L22 40967 64.7756 115.1471 0134104 127.1822 234.1623 14.89717714 86878



Live tracking and technical data element details for FOX-1A (AO-85) (NORAD 40967). FOX-1A (AO-85) can be tracked NOW for your location showing map with azimuth and elevation plus other details from your city location.







IsCatalogInMostPopularTable: catalog: 40967, numindb: 1118
Update: records affected: 1



GetName: 40967 FOX-1A (AO-85)

Hit Count: updated at: Sat, 18 Apr 2026 16:24:57 GMT